Wind_Speed
32 30 34 31 32 30 27 22 17 12 9 7 7 9 11 13 14 15 15 16 17 18
34 32 30 31 32 29 25 20 15 12 9 8 8 10 12 13 14 15 16 17 18 19
32 29 30 31 31 27 22 18 14 12 9 8 9 11 13 14 14 15 17 19 20 20
33 30 32 31 29 25 20 17 14 11 9 8 10 12 13 14 15 17 19 20 20 22
32 32 32 30 26 21 18 16 12 10 8 9 11 12 13 14 16 19 20 21 22 23
33 33 31 27 23 20 17 14 11 8 8 10 11 13 14 16 18 20 21 21 22 23
32 31 28 25 21 18 15 12 9 8 9 10 12 14 16 18 19 20 21 22 22 22
32 29 25 23 19 16 12 9 8 8 9 11 13 15 16 18 19 20 20 20 20 19
28 25 23 20 16 12 9 8 8 8 10 12 14 16 18 20 20 20 20 19 20 20
27 24 20 16 12 10 7 7 8 10 11 13 15 18 19 21 21 19 19 19 20 20
23 20 16 13 10 7 7 7 9 10 12 14 17 19 20 22 19 18 18 18 20 20
19 16 13 10 6 6 8 8 9 11 13 16 18 19 20 21 19 16 17 19 19 20
16 13 9 6 8 6 6 7 10 13 15 16 17 19 21 22 17 16 18 19 20 21
14 11 10 7 5 4 5 8 11 13 15 16 18 19 22 22 18 16 19 21 21 21
Wind_Direction
201 201 192 193 196 195 196 199 204 216 231 256 287 309 322 326 324 321 319 316 315 311
196 193 196 195 193 193 197 201 210 221 236 261 291 311 319 321 321 319 316 313 310 309
188 191 196 196 193 195 198 205 215 225 243 269 295 311 316 320 319 316 312 309 307 307
186 191 191 191 192 196 202 209 217 230 250 278 300 310 317 317 314 312 309 309 309 309
187 188 188 189 193 198 206 212 220 236 260 288 304 312 314 313 312 311 310 309 309 310
182 184 185 189 194 201 207 216 226 246 275 296 307 310 311 312 312 311 310 309 309 309
180 182 186 190 196 201 210 221 237 263 286 300 306 310 313 313 313 312 310 308 307 306
175 180 186 190 195 202 212 229 253 276 293 304 309 310 314 317 316 311 306 304 304 303
176 183 187 189 195 203 220 241 265 285 300 305 309 314 318 318 315 307 307 305 306 306
178 180 185 188 194 207 226 254 277 294 302 308 314 319 319 317 316 307 306 307 308 306
176 180 182 187 197 211 243 267 284 297 308 316 318 319 319 320 318 310 307 306 306 305
174 178 182 185 197 231 252 274 293 308 316 319 320 321 322 323 320 310 308 310 310 308
172 175 172 196 215 234 262 290 309 316 320 319 320 322 325 327 322 313 312 313 309 307
164 174 184 195 218 252 291 309 316 319 320 321 323 325 327 326 322 315 313 310 311 309
Height
1455 1460 1466 1471 1476 1480 1484 1488 1491 1492 1495 1495 1494 1493 1491 1490 1489 1488 1487 1485 1482 1480
1451 1457 1464 1469 1473 1478 1482 1485 1488 1490 1492 1492 1491 1489 1488 1487 1486 1484 1482 1481 1478 1475
1449 1456 1462 1466 1471 1476 1480 1483 1485 1488 1489 1489 1487 1487 1485 1484 1482 1480 1478 1476 1473 1471
1448 1454 1460 1465 1470 1474 1478 1481 1482 1485 1485 1485 1484 1483 1482 1480 1478 1476 1474 1471 1468 1465
1446 1452 1458 1464 1469 1474 1476 1479 1480 1482 1482 1482 1481 1480 1478 1476 1473 1472 1469 1466 1463 1459
1445 1451 1457 1463 1468 1472 1475 1477 1478 1479 1479 1478 1477 1476 1474 1472 1469 1467 1464 1461 1457 1454
1444 1451 1457 1462 1466 1470 1473 1475 1477 1477 1476 1475 1474 1472 1469 1467 1465 1462 1459 1456 1452 1448
1444 1450 1456 1460 1465 1468 1471 1473 1474 1474 1473 1472 1470 1468 1465 1462 1460 1457 1454 1451 1447 1443
1445 1450 1456 1459 1463 1466 1469 1471 1472 1471 1469 1468 1466 1463 1460 1458 1455 1452 1449 1445 1442 1438
1445 1450 1455 1459 1462 1465 1467 1469 1469 1467 1466 1464 1461 1458 1456 1453 1450 1447 1443 1440 1437 1433
1446 1451 1455 1459 1461 1464 1466 1467 1466 1464 1462 1459 1457 1454 1451 1448 1445 1441 1438 1436 1432 1429
1448 1452 1455 1458 1460 1463 1464 1463 1462 1460 1458 1456 1453 1450 1446 1443 1439 1437 1435 1431 1428 1423
1448 1452 1455 1457 1460 1461 1461 1460 1459 1456 1454 1451 1449 1445 1442 1438 1435 1433 1430 1427 1422 1418
1449 1452 1454 1456 1458 1459 1459 1457 1455 1453 1450 1447 1444 1441 1438 1434 1431 1429 1426 1422 1417 1413